{"data":{"norad_id":63143,"intl_designator":"2025-043M","name":"STARLINK-11579 [DTC]","alt_names":[],"object_type":"PAYLOAD","status":"ACTIVE","operator":null,"country":"US","launch_date":"2025-03-03","launch_site_code":"AFETR","launch_vehicle":null,"mission":null,"orbit_class":"UNKNOWN","rcs_meters":null,"size_class":null,"mass_kg":null,"dimensions":null,"purposes":["comms"],"wikipedia_slug":null,"has_3d_model":false,"image_url":null,"decayed_at":null,"tle_current":{"epoch":"2026-05-25T00:55:34.093056Z","epoch_age_seconds":68932,"freshness":"FRESH","line1":"1 63143U 25043M   26145.03858904  .00170555  00000+0  13013-2 0  9998","line2":"2 63143  42.9965 150.1664 0000634 278.6523  81.4273 15.70918522 71365","mean_motion":15.70918522,"eccentricity":6.34e-5,"inclination_deg":42.9965,"raan_deg":150.1664,"arg_perigee_deg":278.6523,"mean_anomaly_deg":81.4273,"bstar":0.0013013,"rev_number":7136,"period_min":91.666116341074,"perigee_km":355.843678901,"apogee_km":356.6976017898,"semimajor_km":6734.4076403454,"source":"CELESTRAK","updated_at":"2026-05-25T13:38:19.916099Z"}}}